Flag for U.S.A. Weather past 2 weeks in Yonkers, New York, U.S.A.

Now
35 °F

Light snow. Mostly cloudy.


Feels Like: 27 °F
Forecast: 29 / 38 °F
Wind: 12 mph from North

Location: Teterboro Airport

Current Time: Mar 28, 2015 at 12:29:24 PM

Latest Report: Mar 28, 2015 at 11:51 AM


Visibility: 8 mi

Pressure: 29.84 "Hg

Humidity: 54%

Dew point: 20 °F

Location of YonkersLocation

Historic Weather in Yonkers — Graph

°F

Yonkers temperature yesterday

Maximum temperature yesterday: 47 °F (at 4:51 PM)
Minimum temperature yesterday: 39 °F (at 7:51 AM)
Average temperature yesterday: 43 °F

Past Weeks' High & Low Weather Summary

 TemperatureHumidityPressure
High57 °F (Mar 26, 7:51 PM)97% (Mar 14, 2:51 PM)30.64 "Hg (Mar 14, 2:51 PM)
Low22 °F (Mar 23, 6:51 AM)17% (Mar 13, 11:51 AM)29.55 "Hg (Mar 17, 10:51 AM)
Average38 °F57%30.04 "Hg
* Reported Mar 13 10:51 AM — Mar 28 10:51 AM, Yonkers, Weather by CustomWeather, © 2015

Note: Actual official high and low records may vary slightly from our data, if they occured in-between our weather recording intervals... More about our weather records

Advertising

Yonkers weather history for previous 24 hours

 ConditionsComfort  
Time TempWeatherWind HumidityBarometerVisibility
10:51 AM
Sat, Mar 28
35 °FLight snow. Overcast.14 mph52%29.83 "Hg9 mi
9:51 AM34 °FOvercast.12 mph52%29.82 "Hg10 mi
8:51 AM33 °FScattered clouds.12 mph54%29.81 "Hg10 mi
7:51 AM33 °FOvercast.8 mph56%29.80 "Hg10 mi
6:51 AM34 °FOvercast.10 mph54%29.78 "Hg10 mi
5:51 AM35 °FOvercast.10 mph54%29.76 "Hg10 mi
4:51 AM36 °FPassing clouds.9 mph57%29.76 "Hg10 mi
3:51 AM37 °FPartly cloudy.8 mph57%29.76 "Hg10 mi
2:51 AM37 °FOvercast.8 mph60%29.77 "Hg10 mi
1:51 AM38 °FOvercast.9 mph58%29.78 "Hg10 mi
12:51 AM40 °FOvercast.10 mph55%29.78 "Hg10 mi
11:51 PM
Fri, Mar 27
41 °FOvercast.10 mph53%29.80 "Hg10 mi
10:51 PM42 °FOvercast.8 mph51%29.79 "Hg10 mi
9:51 PM43 °FOvercast.7 mph47%29.78 "Hg10 mi
8:51 PM43 °FOvercast.8 mph51%29.77 "Hg10 mi
7:51 PM44 °FOvercast.7 mph51%29.75 "Hg10 mi
6:51 PM45 °FOvercast.8 mph49%29.74 "Hg10 mi
5:51 PM45 °FOvercast.12 mph53%29.72 "Hg10 mi
4:51 PM47 °FPartly sunny.6 mph50%29.71 "Hg10 mi
3:51 PM46 °FOvercast.9 mph51%29.70 "Hg10 mi
2:51 PM45 °FOvercast.9 mph60%29.72 "Hg10 mi
1:51 PM46 °FOvercast.9 mph61%29.73 "Hg10 mi
12:51 PM45 °FMostly cloudy.6 mph65%29.73 "Hg10 mi
12:00 PM45 °FMostly cloudy.7 mph66%29.74 "Hg10 mi
Weather by CustomWeather, © 2015

See weather overviewHow to use our weather pages